• MPC Preparation (Info)

  • MPEC 2003-T11 : 2003 SV222

    The following Minor Planet Electronic Circular may be linked-to from your own Web pages, but must not otherwise be redistributed electronically.

    A form allowing access to any MPEC is at the bottom of this page.


    Read MPEC 2003-T10 Read MPEC 2003-T12


    M.P.E.C. 2003-T11                                Issued 2003 Oct. 2, 16:15 UT
    
         The Minor Planet Electronic Circulars contain information on unusual
             minor planets and routine data on comets.  They are published
       on behalf of Commission 20 of the International Astronomical Union by the
              Minor Planet Center, Smithsonian Astrophysical Observatory,
                              Cambridge, MA 02138, U.S.A.
    
             Supported in part by the Steven and Michele Kirsch Foundation
                 Prepared using the Tamkin Foundation Computer Network
    
                                  MPC@CFA.HARVARD.EDU
              URL http://cfa-www.harvard.edu/iau/mpc.html  ISSN 1523-6714
    
                                      2003 SV222
    
    Observations:
         K03SM2V* C2003 09 30.38486 05 03 46.89 +34 30 55.3          19.7        704
         K03SM2V  C2003 09 30.39795 05 03 47.12 +34 30 42.9          19.5        704
         K03SM2V  C2003 09 30.41112 05 03 47.24 +34 30 32.8          19.6        704
         K03SM2V  C2003 09 30.42407 05 03 47.47 +34 30 20.0          19.6        704
         K03SM2V  C2003 10 01.31747 05 04 04.68 +34 17 04.4          19.0 R      G90
         K03SM2V  C2003 10 01.32115 05 04 04.71 +34 16 59.8          18.5 R      G90
         K03SM2V  C2003 10 01.32484 05 04 04.73 +34 16 58.1          18.9 R      G90
         K03SM2V 5C2003 10 01.37928 05 04 05.60 +34 16 10.0          19.0 R      673
         K03SM2V 5C2003 10 01.38287 05 04 05.65 +34 16 06.5                      673
         K03SM2V 5C2003 10 01.40718 05 04 05.97 +34 15 45.6                      673
         K03SM2V  C2003 10 02.37114 05 04 20.09 +34 01 14.0          18.8 R      G90
         K03SM2V  C2003 10 02.37490 05 04 20.29 +34 01 10.1          18.9 R      G90
         K03SM2V  C2003 10 02.37868 05 04 20.31 +34 01 05.5          18.9 R      G90
         K03SM2V  C2003 10 02.44339 05 04 20.85 +34 00 07.0          19.3 R      854
         K03SM2V  C2003 10 02.44875 05 04 20.89 +34 00 04.7          19.4 R      854
         K03SM2V  C2003 10 02.45053 05 04 21.03 +34 00 01.5          19.6 R      854
    
    Observer details:
    673 Table Mountain Observatory, Wrightwood.  Observer D. Mayes.  Measurer
        A. Grigsby.  0.6-m reflector + CCD.
    704 Lincoln Laboratory ETS, New Mexico.  Observers M. Blythe, F. Shelly,
        M. Bezpalko, R. Huber, L. Manguso, D. Torres, R. Kracke, M. McCleary,
        H. Stange.  Measurers J. Stuart, R. Sayer, J. Evans, J. Kommers.  1.0-m
        f/2.15 reflector + CCD.
    854 Sabino Canyon Observatory, Tucson.  Observer J. E. McGaha.  0.30-m f/10.0
        Schmidt-Cassegrain + CCD.
    G90 Three Buttes Observatory, Tucson.  Observer G. R. Jones.  0.32-m
        Ritchey-Chretien + CCD.
    
    Orbital elements:
    2003 SV222
    Epoch 2003 Sept. 18.0 TT = JDT 2452900.5                MPC
    M  32.04518              (2000.0)            P               Q
    n   0.37854234     Peri.   79.36562     +0.65684294     +0.70210849
    a   1.8926039      Node   235.33097     -0.75336928     +0.62631404
    e   0.4265329      Incl.   19.53078     +0.03149724     +0.33878369
    P   2.60           H   17.5           G   0.15
    From 16 observations 2003 Sept. 30-Oct. 2.
    
    Ephemeris:
    2003 SV222               a,e,i = 1.89, 0.43, 20                  q = 1.0853
    Date    TT    R. A. (2000) Decl.     Delta      r     Elong.  Phase     V
    2003 09 28    05 02.77   +35 05.3    0.798    1.443   106.0    41.9    19.4
    2003 10 08    05 04.50   +32 31.5    0.768    1.501   115.7    36.9    19.3
    2003 10 18    04 59.75   +29 30.3    0.742    1.560   127.0    30.7    19.1
    2003 10 28    04 48.98   +26 00.8    0.727    1.619   139.9    23.3    19.0
    2003 11 07    04 33.75   +22 09.4    0.729    1.677   154.0    15.0    18.8
    2003 11 17    04 16.61   +18 13.6    0.755    1.735   168.3     6.7    18.6
    2003 11 27    04 00.31   +14 37.2    0.807    1.791   173.3     3.7    18.6
    2003 12 07    03 47.12   +11 40.8    0.887    1.846   161.0    10.0    19.2
    2003 12 17    03 38.13   +09 33.0    0.990    1.900   148.6    15.7    19.7
    2003 12 27    03 33.51   +08 11.5    1.113    1.953   137.2    20.0    20.2
    2004 01 06    03 32.90   +07 28.7    1.252    2.003   126.9    23.1    20.6
    2004 01 16    03 35.67   +07 15.0    1.402    2.052   117.6    25.1    21.0
    2004 01 26    03 41.24   +07 22.0    1.561    2.100   109.0    26.3    21.3
    2004 02 05    03 49.07   +07 42.9    1.726    2.145   101.1    26.8    21.5
    2004 02 15    03 58.72   +08 12.2    1.893    2.189    93.6    26.8    21.8
    2004 02 25    04 09.84   +08 45.8    2.060    2.231    86.6    26.3    22.0
    
    Timothy B. Spahr             (C) Copyright 2003 MPC           M.P.E.C. 2003-T11
    

    Read MPEC 2003-T10 Read MPEC 2003-T12


    MPEC number:

    Enter an MPEC number in one of the following forms:

    • 1997-B01 (the full form)
    • J97B01 (the packed version of the full form)
    • B01 (the abbreviated form)